Location: Dentlein
(49.1477°N, 10.4231°E)
Time: 20:40:59
(UTC+00:00)

Cosmos 2221 Rocket - Pass Details

Date: 23 May 2024
Orbit: 617 x 646 km, 82.5° (Epoch: 24 June)

Event Time Altitude Azimuth Distance (km) Brightness Sun altitude
Exits shadow 02:28:31 - 188° (S) 2,558 6.2 -8.0°
Reaches altitude 10° 02:29:48 10° 188° (S) 2,041 5.7 -7.9°
Maximum altitude 02:34:21 89° 98° (E) 652 3.7 -7.4°
Drops below altitude 10° 02:38:55 10° 10° (N) 2,049 7.1 -6.8°
Sets 02:41:10 0° 10° (N) 2,960 8.0 -6.5°
